Theta_e
322 322 323 323 324 323 323 323 323 324 323 324 323 324 323 322 322 321 321 322 322 323 324 324 325 325 324 325 325 323 310 295 294 293 294 296 308 321 323 324 324 325 316 296 298 295 294 291 296 294 294 296 294 296 296 296 296 298 293 288 287 286 287 289 291 289 290 289 291 287 285 291 289 288 292 293 291 294 296 295 299 302 301 303 303 304 303 303
322 323 323 323 323 323 323 323 324 324 324 324 323 324 324 323 323 322 322 322 322 323 324 325 325 324 324 321 324 320 297 293 293 294 294 305 322 324 324 323 323 324 315 296 297 295 294 293 294 289 295 295 292 294 295 295 295 292 286 287 289 285 289 291 290 291 290 292 286 284 284 287 285 282 289 289 286 290 293 294 298 297 299 302 302 302 302 303
322 323 322 322 322 322 322 323 323 323 323 323 324 324 324 324 324 324 323 322 322 323 324 324 324 323 323 322 322 318 304 291 291 292 295 318 324 326 323 321 324 315 297 300 296 297 296 294 294 290 288 290 288 293 293 293 296 290 291 287 287 288 288 289 290 292 288 288 286 285 283 283 282 283 286 287 284 288 288 290 295 295 296 298 300 301 300 298
321 322 321 321 321 321 321 322 322 323 323 324 324 324 324 323 323 323 323 323 324 324 324 323 324 323 322 321 323 304 294 290 290 292 294 316 323 323 322 322 319 305 297 296 295 297 290 289 287 291 289 287 286 288 292 293 294 291 290 287 288 287 291 288 286 288 286 288 286 285 284 284 282 281 284 286 287 284 283 283 283 289 292 291 292 292 294 291
320 320 320 320 320 320 320 321 322 322 323 323 323 323 323 323 323 323 323 323 323 323 323 323 323 324 321 323 316 296 292 288 290 292 296 318 321 319 319 324 315 295 297 296 292 290 292 292 290 287 290 289 286 288 287 288 290 291 290 289 287 287 289 285 282 281 284 285 286 284 286 283 282 281 279 282 286 284 281 283 284 286 289 290 289 288 289 289
319 320 319 319 319 320 320 321 322 323 322 323 323 323 323 322 323 322 322 323 323 323 323 323 322 321 322 317 297 297 293 282 293 293 315 316 318 317 317 321 312 295 293 291 290 288 294 290 290 290 286 288 287 287 286 286 288 290 285 283 283 284 288 282 282 280 283 283 283 281 282 281 280 278 279 278 277 279 282 283 284 285 286 287 287 287 286 286
319 319 319 319 319 319 319 320 321 321 322 322 322 323 323 323 323 322 322 322 323 323 323 323 321 322 320 310 294 293 291 292 291 294 309 315 316 312 311 309 305 294 295 295 291 295 287 289 289 285 285 284 285 284 285 287 285 287 287 283 282 282 281 280 280 282 282 284 281 282 284 281 280 279 279 277 278 280 282 284 285 285 285 286 284 284 284 284
320 319 319 319 319 319 319 320 321 321 322 322 323 323 323 323 322 322 321 321 322 322 323 323 321 318 316 298 297 288 286 290 294 293 305 312 300 297 300 292 292 290 290 291 290 290 287 288 288 285 284 286 287 286 287 288 285 286 285 284 282 282 281 282 282 282 282 281 282 282 279 277 280 279 278 276 278 280 281 283 283 283 284 283 283 283 283 283
320 319 319 318 318 319 319 320 320 321 321 322 323 323 323 322 321 321 321 321 321 322 322 323 321 318 310 290 286 287 286 292 294 293 294 293 293 291 294 297 290 291 288 287 288 289 291 288 287 286 288 286 287 289 285 287 285 285 285 282 282 282 281 282 283 282 282 283 283 281 278 279 279 281 277 277 278 280 281 282 282 282 282 282 282 282 283 283
318 319 318 318 318 319 319 320 319 320 321 322 322 323 322 321 321 321 322 321 322 322 322 322 320 310 296 291 289 286 291 294 292 293 291 291 292 291 292 290 289 290 293 290 289 289 291 287 290 288 287 285 287 286 285 287 286 284 281 281 281 281 281 281 282 281 281 281 281 280 278 278 279 280 278 278 278 280 280 280 281 281 280 281 281 281 282 282
319 317 317 318 319 319 319 319 319 320 321 322 322 321 321 321 321 322 322 322 321 322 321 322 318 306 292 289 287 285 295 296 295 293 292 291 291 292 292 291 290 289 289 288 289 289 289 286 287 287 290 288 287 286 285 288 286 283 283 283 282 282 283 282 281 281 281 282 281 282 279 278 278 278 277 276 278 279 278 279 280 279 279 280 280 280 281 281
318 317 317 318 318 318 319 319 319 320 321 321 321 320 320 320 321 323 322 322 321 321 319 319 309 294 291 295 290 290 295 296 294 292 294 293 291 291 291 290 290 292 291 291 290 289 289 289 287 290 287 290 285 287 287 287 287 284 286 283 284 281 283 283 280 281 281 282 281 282 281 279 276 274 276 277 279 279 278 278 278 278 279 279 279 280 280 280
317 317 317 318 318 319 319 319 319 320 321 321 321 320 320 321 321 321 321 320 322 320 320 314 304 296 293 290 291 295 292 293 294 293 295 293 291 289 289 287 289 290 290 290 291 290 288 288 288 290 288 285 285 285 287 286 283 285 282 281 283 278 280 283 281 280 282 281 280 281 278 278 275 276 276 277 278 279 278 277 277 277 278 278 278 279 279 280
316 316 317 318 318 319 319 319 320 320 321 321 321 321 320 320 321 322 322 321 321 322 320 312 292 291 289 286 294 294 294 294 293 296 293 294 293 293 291 291 289 288 289 289 288 289 289 289 291 290 289 288 287 289 285 282 283 284 283 281 278 280 279 282 280 280 282 281 279 283 278 277 276 277 277 277 278 278 277 277 277 277 277 278 278 278 278 278
316 316 318 318 318 318 319 319 319 320 321 321 321 320 320 318 319 322 322 319 321 320 318 311 296 294 287 291 292 293 312 292 295 292 291 293 291 294 294 291 291 288 288 289 289 289 289 290 290 287 287 287 286 286 280 279 279 280 283 277 277 278 281 282 282 279 280 282 281 283 275 278 277 277 277 278 277 278 276 276 276 277 277 277 277 277 278 277
316 316 318 317 318 318 319 319 319 319 320 321 320 319 319 320 316 317 319 318 316 316 298 297 295 292 288 286 293 301 290 291 294 292 291 292 291 291 291 289 288 290 289 291 289 292 291 293 288 287 285 285 283 278 279 281 279 278 280 275 277 277 280 280 281 279 280 278 280 281 279 276 277 278 277 277 276 276 276 276 276 276 276 277 277 277 277 277
316 317 317 317 318 318 318 319 318 318 319 320 320 317 318 320 320 316 315 309 301 300 295 295 292 294 289 291 294 291 288 290 291 292 292 291 290 290 289 290 289 291 289 290 292 290 291 288 284 284 283 283 282 282 281 274 274 276 277 276 278 278 278 278 281 281 280 279 281 277 278 276 275 276 276 275 276 275 275 276 276 276 276 277 277 276 277 277
315 316 317 317 317 318 318 318 318 318 319 319 317 318 305 313 317 313 304 301 296 295 294 293 290 292 288 291 288 289 291 287 292 290 290 291 290 291 291 291 290 290 287 289 290 289 287 284 284 282 283 282 281 280 274 272 276 277 277 275 277 276 278 278 278 281 279 279 277 276 275 274 275 275 275 275 275 275 275 275 275 275 275 275 275 275 275 276
317 317 317 316 317 317 318 318 318 318 318 319 318 317 312 312 295 297 296 295 293 290 286 289 287 281 282 288 288 288 290 291 290 290 292 293 291 288 289 288 288 288 287 284 287 285 285 284 285 282 279 279 278 278 279 281 278 279 278 277 276 276 277 279 280 279 278 276 277 275 278 276 275 275 275 275 275 275 275 275 275 274 275 275 275 275 275 275
317 316 316 316 317 317 318 318 317 315 317 307 296 299 294 291 286 287 292 295 288 288 288 289 287 288 287 288 290 293 293 289 289 291 292 293 291 288 287 287 287 288 282 282 282 283 283 279 276 276 278 280 279 278 278 279 280 278 278 276 277 277 276 278 279 279 278 278 275 274 274 274 275 275 275 275 274 274 274 274 274 275 275 275 275 275 275 275
316 316 315 316 317 317 318 318 317 315 311 293 295 294 291 286 284 283 285 289 287 284 288 288 288 289 289 289 288 290 286 288 287 291 291 294 289 287 286 283 283 283 280 280 282 284 284 280 277 278 279 279 279 277 277 277 278 279 276 275 277 276 276 279 279 278 278 278 275 274 274 274 275 275 275 275 274 274 274 274 274 275 275 275 275 275 275 276
316 315 315 316 316 317 318 317 315 313 309 295 294 292 290 287 293 291 288 285 290 288 286 287 285 288 289 287 288 288 286 285 289 290 293 295 291 285 285 283 280 280 279 279 278 279 279 277 279 278 278 278 278 277 277 278 277 276 277 274 272 275 277 277 278 278 278 278 276 274 274 276 276 275 276 274 274 275 275 275 276 275 275 275 275 275 276 276
315 314 315 316 316 317 318 318 313 309 292 295 293 291 295 296 295 292 291 288 286 289 288 286 288 284 287 289 289 288 285 284 282 287 289 290 285 286 282 281 280 279 282 278 277 275 277 277 279 278 277 278 278 278 277 277 277 277 275 274 274 276 274 273 277 276 278 276 276 274 274 276 276 276 276 276 275 275 276 276 276 276 275 275 275 276 276 275
315 314 315 315 317 317 317 315 311 298 292 292 293 295 296 291 291 293 289 283 285 288 290 289 287 285 286 288 291 287 285 284 282 285 291 286 284 284 282 281 279 279 279 279 279 278 276 279 279 276 278 280 278 278 278 276 276 275 275 273 273 275 277 276 276 276 276 277 276 275 273 274 274 275 276 277 276 276 276 276 276 276 276 277 277 276 277 276
314 314 315 316 316 317 315 311 297 293 290 290 291 294 293 293 293 290 287 283 281 285 290 288 286 289 290 292 288 289 286 284 285 285 286 287 285 282 283 282 278 279 278 280 279 279 278 280 279 277 277 277 278 278 277 276 274 273 274 277 278 277 277 276 276 276 274 273 276 275 268 267 273 274 275 276 275 275 276 276 276 276 276 276 275 276 277 277
313 315 315 315 316 315 315 300 296 293 290 291 294 295 291 291 294 291 283 277 273 281 287 285 292 288 291 288 287 282 285 282 286 287 289 288 288 285 281 280 280 279 279 279 279 280 279 279 277 278 277 277 276 277 277 277 273 270 275 277 278 277 276 276 276 275 267 269 274 276 271 265 273 273 275 275 275 276 277 276 277 277 277 276 276 277 277 276
313 314 314 314 314 313 299 292 292 292 290 292 295 293 294 295 292 295 291 271 268 281 282 289 289 288 292 286 284 285 277 280 287 285 287 288 286 287 282 278 280 280 279 279 276 278 281 279 277 277 277 277 276 276 277 277 270 273 276 276 276 276 276 275 274 272 272 275 277 276 273 267 267 274 273 273 273 275 276 277 277 278 278 277 277 277 277 277
314 314 313 313 310 305 293 295 292 290 290 293 292 292 293 292 294 292 277 263 266 286 283 284 289 290 289 287 287 282 283 283 280 284 286 286 286 285 282 279 279 279 279 276 267 277 279 278 278 278 276 276 276 278 278 277 275 276 277 276 276 276 276 274 272 271 271 273 271 271 275 268 264 272 274 274 275 275 276 277 278 279 279 278 278 278 278 278
314 313 312 312 311 307 294 290 288 292 291 290 292 294 292 290 291 286 271 269 278 282 293 285 294 287 283 285 283 280 282 282 280 283 285 285 288 284 280 280 278 279 279 279 276 277 281 280 281 277 275 276 277 276 276 277 275 276 276 275 274 275 273 273 270 272 266 268 261 268 273 267 268 270 273 274 274 274 276 278 279 279 280 279 279 279 279 278
313 311 312 311 300 294 293 291 294 295 293 295 295 291 290 291 285 277 271 265 283 276 285 285 284 282 280 279 280 281 282 280 281 282 282 280 285 284 282 282 279 278 279 279 278 278 280 282 283 280 279 279 279 277 276 276 278 277 276 277 274 271 271 270 268 264 264 260 264 269 273 271 265 270 273 274 275 276 277 278 278 278 279 280 280 279 279 278
311 310 310 305 292 292 290 288 292 293 294 298 295 287 286 282 271 263 265 271 283 282 282 282 280 280 278 279 277 281 279 278 281 279 280 282 282 280 281 281 279 275 274 275 275 275 279 278 280 280 282 280 278 278 277 277 277 275 273 273 273 274 269 267 264 262 262 256 262 269 271 271 263 268 271 276 276 274 278 279 280 279 278 279 279 280 279 279
311 310 308 300 296 290 293 290 295 297 295 293 288 286 286 279 276 270 270 282 277 278 278 279 280 278 278 277 277 278 278 277 278 278 276 276 276 277 277 273 271 266 264 268 272 274 277 278 277 278 283 279 276 278 277 274 277 275 273 272 266 259 259 263 258 261 253 260 270 268 270 267 269 274 276 275 276 278 277 279 281 281 280 279 279 280 280 279
308 309 308 302 298 291 290 292 295 298 294 290 286 283 274 266 269 264 266 273 276 279 279 281 279 277 277 275 276 277 278 278 278 278 278 277 275 275 276 277 277 273 269 271 270 268 271 272 275 278 279 280 277 273 274 272 274 274 272 264 258 255 250 252 252 256 257 265 267 268 267 268 270 273 276 278 279 279 279 279 279 280 280 279 279 279 279 279
307 305 298 297 296 294 295 295 295 296 290 290 286 284 277 271 268 282 272 273 277 277 280 278 277 277 275 277 277 276 276 278 277 278 276 274 274 273 274 276 277 275 269 270 271 267 264 267 275 276 276 278 276 277 276 275 275 274 272 273 264 253 257 257 251 259 260 261 265 265 263 261 264 272 275 276 276 275 276 276 277 278 278 278 278 278 279 279
306 298 295 291 293 293 295 296 292 291 286 286 280 275 271 266 265 270 272 273 276 278 280 279 274 274 274 273 274 276 278 275 277 276 276 274 273 272 274 275 276 274 270 269 264 265 271 267 272 276 278 277 277 278 276 274 274 274 272 271 266 263 263 263 253 257 253 258 262 259 264 264 272 274 277 277 275 276 276 276 276 277 278 278 278 279 279 279
305 295 291 289 293 292 292 292 290 288 286 284 279 271 266 267 271 273 277 280 279 279 278 277 272 274 270 269 271 274 279 275 276 274 274 274 274 275 275 274 275 277 271 268 265 266 266 270 274 275 277 277 278 278 278 276 265 273 272 263 269 272 265 257 263 262 262 255 260 256 266 270 272 274 272 273 274 276 276 276 276 277 277 278 278 279 279 280
292 291 293 289 290 293 292 290 290 287 287 282 273 269 270 273 277 273 281 279 280 277 273 274 271 271 270 269 270 268 274 276 274 272 273 275 274 274 274 275 276 276 275 270 267 266 265 269 272 274 277 278 276 277 276 274 275 268 264 269 273 273 270 267 261 254 249 254 261 261 262 264 265 269 271 273 274 275 275 276 276 277 277 277 278 279 280 280
292 291 290 289 291 293 293 288 289 287 284 281 272 282 275 279 280 280 276 279 280 276 271 271 273 275 267 270 272 270 275 274 276 273 273 274 273 277 274 275 276 277 277 276 271 270 269 263 269 273 274 277 276 278 277 277 276 276 271 273 270 259 264 262 257 256 255 254 256 261 256 259 263 270 270 271 272 275 275 275 275 276 276 277 278 279 279 280
285 286 286 291 290 289 291 288 288 285 282 278 269 279 279 278 279 279 279 281 279 276 274 272 270 274 270 268 269 271 270 270 271 272 268 273 270 277 277 276 277 276 276 276 271 272 271 264 268 272 275 276 275 274 266 271 277 275 275 272 271 265 256 260 261 255 260 255 257 260 255 269 265 266 267 273 271 274 275 274 275 276 277 278 278 279 279 279
291 289 283 291 290 288 290 290 289 283 279 276 270 272 278 279 280 280 279 280 279 276 275 274 274 272 275 272 273 272 273 272 273 273 272 273 276 278 277 278 275 277 275 276 273 274 271 269 259 269 272 273 271 274 271 271 266 270 268 264 269 261 265 264 260 261 264 251 253 252 259 265 271 269 271 274 274 274 275 276 276 276 276 276 277 278 279 279
283 284 286 290 291 290 290 290 283 276 274 277 278 277 278 279 280 281 280 279 281 281 276 275 274 272 273 271 273 275 273 271 273 271 273 274 274 269 275 277 276 275 276 275 274 271 266 271 263 266 270 270 271 271 272 271 272 269 269 266 268 259 263 261 263 257 253 258 259 250 262 266 274 273 274 275 275 274 275 275 276 276 276 276 276 277 278 279
289 282 285 291 289 290 287 282 274 275 276 273 277 280 282 288 279 280 280 279 279 279 278 276 276 274 273 275 274 273 274 272 272 271 272 271 275 275 276 273 276 275 274 270 270 272 272 267 269 264 269 272 271 274 272 273 273 271 273 271 267 262 260 256 255 259 257 259 256 254 253 267 274 273 273 274 274 275 275 274 275 276 276 276 276 277 277 278
280 283 291 289 289 290 284 273 275 275 273 280 281 280 279 279 277 278 279 280 280 278 278 278 278 278 275 277 276 274 274 271 273 273 272 273 271 274 275 274 276 276 272 269 272 272 280 264 262 267 269 266 269 270 272 271 273 273 271 266 267 264 264 266 264 257 259 256 259 254 256 268 274 273 273 273 273 273 272 273 274 276 276 276 276 276 276 277
281 284 289 291 288 288 278 274 272 273 275 280 279 280 279 281 279 279 279 278 278 279 279 277 278 279 277 276 277 278 277 270 273 276 274 273 275 274 271 275 275 276 273 271 269 275 267 266 268 260 260 265 263 265 269 271 273 270 266 266 264 262 259 255 257 255 263 261 264 261 261 268 272 273 273 274 273 274 275 275 274 274 276 277 277 277 277 277
283 283 283 285 289 285 281 275 279 271 275 276 276 278 279 280 279 280 279 279 279 276 277 278 278 278 276 277 275 277 277 275 272 274 273 272 273 275 272 272 273 276 274 275 281 274 268 266 265 262 260 260 260 260 261 261 265 270 268 266 263 265 262 265 263 259 260 262 264 257 262 273 275 275 275 275 274 275 277 276 276 275 276 277 277 277 277 277
284 278 280 281 283 283 280 278 278 277 274 270 274 277 276 278 281 276 278 280 278 278 278 279 277 276 275 277 277 277 276 277 275 269 270 270 269 273 275 273 272 276 276 280 276 272 264 266 268 266 265 267 269 270 269 271 267 266 265 265 266 263 265 263 261 259 265 260 263 267 270 273 274 276 277 278 278 277 278 278 277 277 277 276 276 276 277 277
280 276 274 278 279 282 278 277 278 277 277 276 272 275 273 276 277 280 279 280 279 279 279 278 278 277 275 277 274 274 274 275 273 271 269 267 267 272 271 274 275 276 280 279 272 264 261 265 269 269 269 272 273 272 271 273 270 272 270 268 265 265 265 267 267 267 265 261 264 270 271 269 272 275 277 277 278 278 277 277 277 277 277 277 277 277 279 277
284 279 279 282 281 278 275 279 277 278 278 277 273 276 274 276 277 275 280 280 279 278 280 279 277 278 275 276 273 271 272 272 272 267 270 267 269 272 275 274 276 278 279 275 269 269 263 264 261 264 267 269 271 271 272 271 271 272 271 270 267 266 264 266 268 272 268 268 268 274 268 269 274 276 278 278 279 279 279 279 279 279 279 279 278 277 277 277
281 280 281 281 279 275 275 278 278 279 278 275 277 277 274 275 275 274 277 279 279 278 279 274 275 277 276 274 276 271 271 270 268 267 265 267 266 268 268 271 276 279 276 272 274 259 267 264 260 261 266 269 270 271 272 270 269 269 269 270 271 269 266 268 270 272 271 271 273 274 274 273 276 277 279 279 280 279 279 280 279 278 278 278 278 277 277 277
281 280 279 279 278 276 275 276 278 278 279 280 272 277 276 275 276 277 277 278 275 277 278 276 275 275 276 275 275 270 272 275 275 272 269 268 267 267 264 270 269 274 274 272 270 269 270 264 269 262 262 268 268 267 266 267 266 267 271 271 270 270 270 270 270 271 270 270 271 272 271 271 276 279 278 279 279 279 279 278 278 278 277 277 277 276 277 277
283 279 284 285 279 276 276 274 279 275 276 278 276 276 278 275 275 277 279 278 278 275 276 276 274 275 274 275 274 276 277 274 274 277 274 273 272 273 273 271 274 269 271 268 267 267 267 263 258 256 264 267 265 265 267 267 267 267 269 272 272 270 266 269 268 270 269 268 270 268 267 269 275 278 276 277 277 276 275 277 277 277 278 277 276 276 276 276
280 281 280 281 276 278 279 274 276 278 275 274 277 277 279 279 276 278 279 278 276 277 277 277 275 277 274 275 275 278 279 277 278 277 276 277 278 276 275 276 276 273 269 271 262 264 263 260 264 258 265 267 266 265 267 268 270 270 271 271 272 270 270 267 270 270 272 273 268 266 269 276 277 275 274 276 275 275 275 276 277 277 277 277 277 277 277 277
Wind_Speed
3 3 5 6 7 7 7 7 7 7 7 7 7 6 6 6 6 6 6 6 5 6 6 5 4 4 5 5 6 7 5 6 5 5 8 3 4 6 9 9 8 7 3 2 6 3 0 3 0 8 1 2 2 1 1 2 1 1 2 3 3 4 4 6 6 9 2 1 3 3 4 11 6 3 1 3 12 10 11 11 7 13 11 11 11 14 14 13
5 6 7 7 7 7 7 7 7 7 7 8 7 8 7 6 6 6 5 5 5 6 5 3 3 3 5 4 4 5 6 4 8 8 3 3 5 7 9 9 7 3 1 3 4 2 1 0 1 2 2 2 2 1 1 1 1 3 2 3 8 5 5 8 5 5 2 1 6 3 6 6 3 2 3 6 7 5 12 8 8 12 11 13 13 13 13 10
9 9 9 9 8 7 7 7 8 8 8 8 8 8 7 7 6 6 5 5 5 5 3 2 1 2 3 4 3 4 0 2 4 7 3 5 6 8 9 9 4 4 2 0 1 2 1 2 0 1 3 2 6 2 1 0 1 1 4 3 5 7 2 3 2 1 2 10 8 8 4 12 5 0 5 7 6 10 8 4 7 9 11 11 11 10 8 9
7 8 8 8 8 8 8 8 8 8 8 7 7 7 6 5 5 5 4 4 4 3 2 1 1 1 2 3 3 1 4 3 4 3 2 7 8 9 8 8 4 4 3 4 2 2 4 6 5 2 1 3 2 0 1 1 1 1 2 4 2 3 1 2 5 5 1 5 8 7 4 10 6 6 3 8 11 7 1 3 3 4 6 6 6 7 10 8
7 7 6 7 7 7 7 8 7 7 7 7 7 6 5 5 4 4 3 3 3 2 1 1 1 2 2 3 2 2 4 3 1 2 4 9 9 9 8 4 4 2 2 5 4 4 5 2 1 4 2 1 2 2 0 1 0 4 3 1 2 1 0 3 6 4 3 4 12 5 8 7 4 8 10 3 6 4 1 5 6 3 4 6 7 6 7 9
5 5 6 6 6 6 7 7 7 7 8 8 7 6 5 4 3 3 3 2 2 1 0 1 1 1 1 1 2 2 1 1 1 3 6 11 9 7 6 3 4 3 3 4 1 1 0 3 2 1 1 1 1 3 1 0 2 3 2 3 5 2 0 5 6 5 2 4 8 5 4 6 6 7 5 12 8 2 4 6 5 3 7 7 6 6 10 9
5 6 6 7 7 8 9 9 8 8 8 8 8 7 6 4 3 2 1 1 1 0 1 2 0 1 2 5 3 8 7 1 1 5 11 11 9 8 4 5 5 2 2 1 2 0 2 2 2 1 3 3 0 1 0 1 3 2 1 1 6 7 8 5 4 5 8 10 7 5 8 9 4 10 3 8 4 4 6 4 3 6 8 7 9 9 9 9
7 7 8 9 9 9 9 9 9 9 8 8 8 7 7 6 6 3 2 1 1 1 2 2 1 0 3 1 1 5 5 1 6 3 12 10 9 11 3 2 5 3 6 3 1 2 2 2 2 3 3 2 1 3 0 2 4 2 1 1 2 6 4 6 8 11 14 13 8 9 13 6 5 6 4 6 6 7 5 3 5 7 9 9 9 9 8 9
8 8 9 9 10 9 9 8 8 8 8 9 9 9 10 9 7 5 4 3 2 2 2 2 1 2 4 5 5 5 4 3 2 6 7 9 10 8 4 1 5 4 3 2 2 2 2 1 1 4 3 1 1 2 3 3 3 1 1 2 4 6 3 3 11 8 9 6 7 15 9 4 6 4 9 3 6 5 4 5 5 7 10 8 8 7 7 8
8 8 8 8 8 9 8 8 9 9 9 10 10 9 9 8 6 5 3 4 4 3 3 3 2 3 4 4 5 7 1 2 3 5 7 7 9 4 9 3 2 3 2 3 3 5 1 3 2 5 8 4 1 1 2 2 1 5 7 6 8 1 4 7 6 3 4 5 3 9 3 3 6 2 2 3 5 3 4 5 5 7 9 7 6 5 6 7
7 7 6 6 7 7 7 7 7 7 7 7 7 6 5 5 4 4 4 4 5 4 3 2 3 2 5 4 8 5 1 4 1 5 8 7 7 8 4 6 1 3 6 3 4 0 1 3 3 3 1 1 3 1 2 1 4 7 12 9 9 7 10 5 2 3 1 3 5 13 7 3 7 6 2 1 4 3 5 5 6 7 6 5 5 5 4 5
6 6 6 6 8 8 8 8 7 6 6 5 4 3 2 2 3 3 5 4 4 4 4 4 5 4 4 12 8 2 0 1 3 4 7 7 4 3 3 2 1 1 2 2 2 0 1 3 3 1 1 1 1 0 2 1 3 6 0 2 1 4 7 11 3 4 1 2 3 1 7 2 9 2 2 2 2 4 5 5 4 6 5 5 5 4 4 3
7 7 7 8 9 9 8 6 5 5 4 4 2 2 2 2 3 4 4 5 3 4 4 5 4 4 4 9 0 3 1 0 2 6 7 5 2 2 4 4 4 3 1 4 1 2 2 4 4 8 0 3 2 0 1 6 2 2 6 5 2 3 5 11 4 6 5 1 4 2 3 3 3 2 2 3 1 4 5 4 3 2 3 3 2 3 3 3
7 7 6 6 7 7 7 5 5 4 5 4 4 3 3 3 4 3 5 6 4 4 4 5 4 5 5 2 3 3 1 1 2 10 12 6 3 1 4 6 4 5 3 8 3 0 2 1 10 7 3 5 1 0 3 3 4 2 0 5 1 1 1 5 4 8 4 1 7 1 2 3 3 2 3 4 2 2 3 3 3 2 3 3 3 3 3 1
8 7 7 9 9 8 8 7 7 7 6 6 5 3 3 4 4 5 3 4 4 2 3 2 3 2 6 1 4 6 1 2 10 5 5 9 6 2 6 7 5 5 3 4 3 2 3 3 7 8 2 1 1 1 2 4 5 4 1 1 2 2 1 0 4 9 2 1 8 1 2 4 4 6 6 4 2 2 4 5 4 4 3 4 4 4 4 3
8 10 10 11 10 9 9 8 7 8 7 5 4 4 4 4 5 6 5 3 3 3 1 2 7 8 8 3 1 3 4 5 10 4 3 5 4 3 4 3 2 4 2 3 2 3 6 9 11 0 2 5 10 5 4 3 4 5 3 1 0 3 1 2 1 4 2 4 5 3 5 1 5 7 6 3 5 4 4 5 5 5 4 4 4 4 4 4
10 10 10 10 9 9 8 8 7 7 6 5 4 6 7 5 6 5 4 4 5 1 4 1 0 1 4 4 2 4 3 2 4 4 7 3 4 2 2 3 2 1 3 2 9 5 9 8 2 2 5 6 2 0 2 4 3 4 4 1 1 0 3 1 2 3 8 2 3 9 1 5 2 3 6 3 6 6 5 6 5 5 5 5 3 3 4 4
10 10 10 10 10 8 8 7 6 6 5 2 0 1 5 8 4 3 7 6 2 6 3 2 2 4 1 6 3 6 2 5 7 7 3 1 4 6 7 5 1 1 4 2 6 8 5 4 5 3 3 8 9 9 3 1 1 2 4 4 2 2 1 2 2 5 8 7 3 5 2 4 4 3 5 5 5 7 8 7 7 7 6 5 5 5 5 5
8 9 10 10 10 9 7 7 6 6 4 0 3 4 5 4 3 8 8 6 5 6 5 7 7 3 1 4 7 7 3 5 2 7 13 10 4 2 3 2 4 2 1 5 3 6 6 5 5 9 9 9 8 3 2 1 3 1 3 2 2 1 2 1 1 2 5 4 4 4 3 4 5 6 6 4 5 7 7 5 4 5 5 5 6 6 6 6
10 10 11 10 9 8 6 5 5 6 3 3 2 1 3 2 6 4 8 10 7 3 2 0 0 1 1 5 7 9 1 4 4 9 8 2 3 3 6 3 3 9 6 2 7 4 0 10 6 0 4 5 5 2 5 1 1 4 3 4 1 2 5 2 1 1 2 2 0 3 4 5 7 8 7 5 3 4 5 7 7 7 7 7 6 7 7 8
11 11 11 11 9 8 6 4 4 4 4 5 3 3 1 3 1 2 1 3 1 1 3 0 1 1 0 1 4 7 5 3 2 12 10 6 3 3 7 5 8 8 4 1 1 4 5 10 6 3 5 5 5 3 2 4 2 3 5 4 1 1 4 1 0 4 2 0 3 1 3 10 10 6 6 3 4 10 10 9 10 9 9 7 9 9 10 8
11 11 12 11 10 8 6 4 5 2 6 5 3 2 1 2 0 2 6 3 2 1 4 1 1 3 2 2 2 1 2 3 12 16 11 11 8 5 5 9 6 4 5 3 3 7 9 6 4 4 3 3 1 3 1 2 5 5 2 2 1 2 4 4 0 3 4 1 5 1 4 10 7 7 5 8 9 7 8 10 10 10 10 9 8 9 8 6
12 12 12 11 10 8 4 3 5 7 2 2 3 3 1 0 0 2 4 7 3 1 4 3 5 4 4 2 2 4 8 9 3 10 12 8 5 8 1 7 7 4 5 5 7 2 7 3 5 2 2 2 4 5 4 5 6 5 4 2 1 3 3 4 1 2 5 3 4 4 4 10 3 4 8 9 9 7 7 9 11 8 10 11 12 11 10 11
12 12 12 12 9 7 4 2 3 7 5 4 5 2 1 1 1 1 3 2 3 1 1 0 1 1 2 4 3 5 5 1 2 13 9 4 3 1 5 4 6 5 7 7 9 10 4 2 0 4 2 1 1 2 8 6 3 2 4 2 1 2 2 4 5 4 0 3 4 2 3 7 2 4 6 7 8 7 8 7 9 10 9 9 8 8 9 11
12 13 12 11 9 7 2 3 7 0 2 2 2 1 0 0 1 1 5 1 4 1 3 0 3 2 2 0 3 1 0 2 2 3 2 3 4 2 1 1 3 2 2 0 7 10 3 1 1 3 4 3 1 7 6 2 5 4 1 1 1 1 3 5 6 4 4 1 1 4 7 2 1 6 9 3 2 8 7 10 12 12 10 10 11 12 10 11
13 12 13 12 9 8 2 3 0 2 2 2 1 0 1 1 1 0 7 3 1 3 4 2 1 2 2 4 5 1 0 2 1 3 1 3 3 1 1 3 1 3 2 3 6 4 2 2 3 2 3 4 6 5 1 1 1 1 2 2 0 2 2 3 4 1 2 1 2 2 3 6 5 5 4 3 6 11 6 11 13 11 11 10 12 11 11 11
14 12 12 11 10 5 3 1 1 2 2 0 0 2 2 0 1 1 0 5 2 1 1 2 1 1 2 2 1 0 2 3 3 3 4 5 2 1 3 3 2 3 1 1 3 2 2 3 4 4 7 6 5 6 1 2 2 1 0 1 3 0 1 2 3 3 1 0 1 4 3 2 8 7 1 4 4 9 10 14 14 12 13 13 12 12 12 11
13 13 11 9 11 7 2 5 1 1 1 0 2 1 1 1 1 2 5 2 1 2 2 4 1 3 5 5 9 7 3 5 2 1 3 7 0 4 8 1 2 1 0 2 2 2 2 4 4 5 5 5 3 1 1 1 1 2 0 3 1 1 2 5 5 4 1 1 4 2 1 2 4 8 1 1 6 7 12 13 15 16 16 15 14 14 14 13
13 14 11 5 6 9 6 3 3 2 0 2 1 1 1 3 5 6 4 1 0 2 3 1 2 2 9 5 7 3 1 5 2 2 7 1 7 1 6 2 4 4 1 2 6 1 1 1 1 2 3 3 4 2 1 4 4 1 2 6 5 4 6 3 3 4 2 3 4 1 1 1 8 6 5 2 2 10 11 11 12 13 15 15 15 16 14 12
13 14 12 2 2 4 4 3 5 0 2 2 1 0 2 2 3 2 2 1 1 1 1 2 4 5 4 2 2 7 8 4 1 6 4 2 8 9 3 1 1 3 6 6 7 3 1 3 4 3 1 1 2 3 2 3 1 0 4 2 1 6 4 3 6 2 3 1 5 3 1 2 5 7 7 4 7 9 7 6 7 6 9 11 13 14 13 11
11 13 13 6 3 1 1 3 1 2 2 2 1 2 3 9 3 4 0 1 1 1 1 4 2 4 5 7 4 5 2 3 9 5 6 7 10 6 5 1 5 4 6 6 5 7 2 1 1 0 2 1 1 2 1 1 2 1 3 1 1 1 7 3 4 5 1 4 3 1 0 1 2 9 7 10 6 6 8 7 8 8 9 10 10 11 12 12
9 10 14 10 0 0 2 3 1 3 2 1 2 4 4 1 4 1 1 3 0 3 3 3 1 1 3 1 5 5 4 5 3 6 6 4 5 8 7 3 3 1 3 3 1 4 0 2 2 4 2 4 2 1 2 3 4 7 3 8 3 3 6 2 6 2 1 3 1 1 2 3 10 14 9 6 11 11 10 9 9 8 8 7 8 9 8 8
8 3 12 8 3 4 2 1 2 2 1 3 5 4 2 4 1 2 1 4 0 1 1 1 2 3 1 1 4 3 2 3 4 3 1 1 5 2 0 3 1 1 0 1 1 6 4 3 4 3 2 1 1 4 5 2 5 7 5 3 4 3 4 1 5 1 5 4 3 1 1 4 6 11 13 18 17 12 10 11 8 6 7 6 5 5 6 7
7 4 6 3 7 3 0 2 1 2 1 3 3 3 6 1 1 2 1 1 0 1 2 0 2 0 4 3 1 2 3 0 3 3 3 1 5 3 5 4 4 4 3 1 3 1 1 2 1 2 0 2 3 2 2 2 1 1 1 1 2 5 1 2 2 2 4 6 5 4 2 7 1 5 2 8 5 4 4 5 6 7 7 5 4 4 5 6
3 7 4 1 2 3 3 1 2 1 3 3 9 5 2 2 1 2 1 1 1 1 0 0 0 1 2 2 3 1 1 1 2 2 7 4 2 1 2 3 4 4 1 1 1 1 1 5 4 2 1 1 2 0 2 3 2 0 2 3 4 1 5 1 3 2 2 5 9 1 6 4 6 4 9 4 6 8 4 5 4 8 6 4 6 7 8 8
1 1 2 3 3 4 4 3 2 1 2 7 7 5 1 3 0 1 0 0 0 0 1 1 3 2 1 1 1 2 3 0 3 2 2 2 1 1 1 1 0 0 1 1 1 0 3 1 1 5 2 2 0 1 1 1 1 1 1 0 1 3 7 3 2 2 2 3 8 1 10 7 9 10 4 5 3 11 5 7 5 8 5 5 8 9 9 9
1 3 6 3 3 5 4 3 1 4 9 8 5 0 2 1 2 3 1 2 0 2 2 2 2 1 1 1 1 4 2 2 1 2 1 1 0 2 0 1 3 0 1 3 1 3 1 7 3 2 1 1 1 1 2 4 2 4 1 2 2 2 4 2 2 3 5 1 7 1 6 10 7 9 4 6 3 8 5 8 8 7 5 8 10 10 11 11
1 2 1 3 5 5 2 2 2 8 8 9 4 3 1 1 0 0 2 1 0 1 2 2 0 3 2 0 2 1 5 1 5 2 0 1 0 2 1 1 0 1 1 2 2 1 3 3 2 1 0 2 2 0 1 1 0 2 3 4 0 2 1 4 2 3 3 4 6 6 4 9 7 9 5 5 2 7 7 5 5 8 9 11 11 12 11 10
2 2 2 4 4 3 3 1 8 6 6 9 1 3 1 0 1 1 3 2 0 2 1 1 1 0 3 1 2 0 2 2 1 1 1 0 1 2 1 3 0 2 1 3 2 1 1 1 5 1 1 2 2 2 2 1 2 3 2 3 0 3 2 1 1 2 4 6 5 8 6 10 7 7 7 7 6 7 7 3 8 10 10 9 9 9 9 8
1 1 2 1 4 3 4 4 7 10 8 5 4 1 1 1 1 0 1 2 1 1 0 1 0 1 0 1 1 0 1 0 0 1 0 1 1 1 1 2 2 0 2 0 1 0 1 1 1 2 3 1 1 3 5 8 4 0 2 1 1 1 2 3 0 2 3 3 3 2 9 10 8 7 5 12 9 9 8 8 7 8 8 9 9 8 8 8
1 2 1 3 7 2 5 13 12 7 6 0 1 3 0 1 2 0 1 3 0 2 2 3 5 1 3 1 1 1 0 0 0 0 1 2 3 1 0 3 2 1 0 2 1 0 2 0 4 4 6 3 6 1 2 6 6 6 7 6 8 4 2 0 8 2 1 2 4 3 13 11 12 8 9 10 6 5 7 6 6 7 8 8 8 9 9 8
1 1 2 3 6 2 6 9 4 0 4 4 2 2 1 1 2 0 0 1 1 1 2 4 0 2 1 1 2 1 1 0 0 0 2 2 1 1 1 3 5 2 3 2 1 3 1 2 1 5 7 6 2 0 2 2 2 2 5 4 4 3 6 4 1 4 1 3 3 2 2 18 3 4 3 6 6 5 6 5 9 8 8 8 8 8 8 9
4 2 1 4 4 7 11 6 1 4 3 0 1 2 1 1 2 2 1 0 0 1 1 1 2 1 2 1 1 1 3 1 5 2 2 2 3 6 2 6 6 4 3 1 1 1 4 1 2 7 6 4 2 1 1 1 3 1 1 4 4 4 7 9 6 5 4 1 1 1 2 17 5 3 5 4 6 5 4 6 8 9 9 9 9 9 9 9
2 1 1 2 4 3 3 2 2 0 1 0 2 0 1 1 2 0 1 0 1 0 1 1 1 0 1 0 2 1 3 0 2 1 2 1 2 3 3 5 6 2 2 3 3 3 1 3 3 4 6 6 3 2 1 2 1 2 2 4 1 4 7 2 6 0 1 9 10 8 11 14 1 1 3 3 4 5 7 7 8 9 10 9 9 9 9 10
3 0 0 5 7 5 1 3 9 6 1 4 1 1 0 1 1 0 1 1 0 1 1 0 0 2 1 0 1 0 1 1 1 0 0 2 3 0 1 4 4 1 2 2 1 2 2 3 3 0 2 5 7 7 6 4 5 2 0 1 2 10 9 2 2 2 4 4 10 4 10 19 5 5 3 3 5 9 10 9 6 9 11 10 9 10 11 10
1 2 4 5 7 6 5 1 5 7 7 3 3 1 1 1 0 2 3 1 1 1 0 2 1 2 2 1 1 1 2 1 1 1 0 1 3 1 1 1 2 1 2 3 1 1 1 0 3 6 7 9 11 7 2 2 1 3 6 5 8 2 2 3 6 5 13 4 9 16 19 21 21 25 20 16 11 12 15 11 9 10 10 10 11 12 12 11
1 2 0 1 2 8 3 4 4 3 5 3 3 3 2 1 0 1 2 0 1 1 1 0 1 1 1 1 2 1 1 0 1 1 5 6 2 2 1 2 1 2 5 3 1 3 2 1 7 8 10 14 9 8 4 2 8 12 11 9 6 8 11 10 10 13 7 6 13 20 14 10 24 24 20 16 14 12 11 11 11 8 9 11 12 12 11 10
0 1 2 0 3 2 5 1 3 6 3 2 0 1 3 2 0 1 1 0 0 0 1 0 1 2 5 4 3 1 1 1 1 3 0 1 1 2 0 1 1 4 4 0 1 2 3 3 7 7 12 9 11 12 10 7 7 12 11 8 8 10 9 15 20 17 9 10 19 22 7 9 19 21 19 17 16 16 15 16 13 10 11 12 12 12 12 13
3 2 1 1 1 1 1 1 4 7 6 2 1 1 2 3 4 4 2 1 0 0 2 2 4 8 6 3 3 1 2 1 3 2 4 1 5 0 1 1 0 3 2 1 0 1 2 5 3 2 7 8 10 11 9 8 6 8 14 13 12 11 17 19 22 16 15 18 22 21 21 22 23 24 24 21 16 14 16 14 12 11 14 14 12 12 12 13
2 3 0 5 7 4 0 2 2 4 4 1 2 4 5 6 5 1 1 3 1 1 0 2 3 1 5 5 4 3 7 7 3 2 2 3 1 2 3 5 2 1 0 2 1 1 2 6 4 0 3 8 5 3 2 3 3 10 16 13 14 15 15 18 17 14 10 17 22 26 24 25 25 22 17 17 15 15 13 15 15 12 12 13 12 12 13 13
0 0 5 9 4 1 1 2 2 2 1 1 2 2 2 4 4 6 2 3 2 4 5 4 3 4 1 2 3 8 8 6 4 6 7 7 4 6 4 3 6 4 3 1 1 0 1 5 3 2 3 7 2 2 5 5 8 13 21 23 17 12 9 12 11 14 10 17 17 11 12 17 23 12 6 10 11 10 13 15 13 11 11 11 11 13 13 14
2 0 4 6 4 1 1 0 1 2 1 5 3 3 3 7 3 5 1 1 1 1 5 5 5 5 0 1 10 12 6 5 7 7 5 6 1 1 3 2 8 8 6 5 0 3 4 2 0 1 2 9 1 2 7 8 11 14 13 12 12 6 8 2 7 4 16 13 7 9 15 17 11 5 8 9 8 11 12 13 13 12 12 11 13 14 14 13
Wind_Direction
351 348 7 13 6 356 344 333 325 319 311 306 300 288 279 279 283 285 285 287 280 280 292 306 329 321 309 311 330 353 18 90 57 47 57 227 245 288 303 304 314 316 28 37 14 62 357 18 19 338 32 63 311 122 255 52 24 66 146 126 238 195 164 200 184 190 206 114 184 38 334 119 119 345 154 19 30 65 63 57 53 69 70 90 93 105 116 129
357 3 12 12 3 347 334 323 314 306 302 302 302 297 296 296 297 295 291 281 277 275 283 309 306 320 292 316 338 26 70 72 79 65 61 317 339 312 313 314 331 344 287 39 49 60 88 319 347 32 125 116 328 84 9 208 56 106 109 114 234 166 241 165 200 204 132 256 112 89 16 91 93 301 342 83 5 22 66 48 67 83 75 87 96 109 121 130
4 2 3 359 350 338 328 319 314 312 311 308 307 306 305 300 300 296 298 291 285 280 289 300 341 273 292 312 325 38 20 20 38 21 299 359 310 317 324 324 1 28 73 304 200 129 135 205 196 99 15 109 5 179 46 310 98 215 122 219 245 211 236 218 239 280 157 130 120 108 27 73 345 15 318 102 99 59 68 74 69 88 109 105 108 100 101 96
6 358 355 348 339 333 327 322 318 316 312 311 304 305 301 299 290 291 282 282 274 283 287 326 321 296 313 311 357 131 87 61 46 268 276 321 321 328 329 336 65 66 74 62 153 118 117 85 56 101 63 70 308 20 131 244 107 247 104 200 236 187 139 17 352 287 184 121 119 105 146 78 20 21 31 137 82 45 28 42 342 360 81 79 75 89 95 78
5 355 343 330 330 331 327 326 325 324 321 319 315 310 313 310 311 300 296 278 272 286 320 296 322 355 331 330 68 104 84 53 261 247 267 328 332 331 335 354 70 55 114 145 91 53 74 98 85 36 89 188 357 21 13 355 114 115 189 174 170 105 99 4 328 352 83 89 104 96 89 122 170 32 27 343 120 159 276 318 317 294 76 86 90 56 77 80
351 341 328 325 328 334 338 340 340 331 329 322 318 318 323 325 328 321 302 293 294 295 312 34 323 14 337 27 92 75 98 37 275 292 338 330 329 333 335 55 81 102 99 50 106 39 80 1 63 28 14 77 201 140 299 155 0 201 352 53 38 298 304 347 343 349 69 89 79 80 115 88 79 105 37 56 69 299 294 288 294 36 70 80 72 76 77 70
342 335 336 340 344 350 350 348 342 334 328 326 328 334 338 351 352 355 319 308 258 164 122 107 194 190 191 85 65 86 94 197 338 283 350 330 327 338 347 54 55 71 88 87 11 157 41 79 79 184 96 67 304 111 159 355 0 99 132 68 23 40 56 333 20 45 66 82 72 96 95 76 132 76 4 55 353 347 337 336 359 64 68 60 70 60 74 78
349 349 354 353 346 347 345 343 339 335 333 331 331 338 348 360 6 13 9 12 76 114 101 117 119 63 197 79 68 24 47 320 295 337 337 327 340 336 6 44 50 81 57 68 117 128 120 55 164 149 66 149 215 130 309 101 21 107 42 52 152 54 38 42 65 71 81 76 102 75 64 30 60 111 98 22 3 356 359 2 61 71 70 58 66 71 78 82
358 356 354 349 343 337 337 338 335 332 337 340 344 351 356 6 12 13 28 40 68 86 101 115 113 114 118 85 105 67 351 259 219 303 332 338 332 344 17 359 17 96 128 69 4 171 139 249 102 195 241 127 189 110 335 155 302 108 48 69 62 94 77 39 71 58 72 105 86 71 68 70 111 103 63 28 352 5 340 59 55 70 72 65 63 70 82 89
360 356 350 346 331 329 326 334 339 340 346 349 349 351 352 1 10 28 48 78 89 96 105 118 125 99 64 80 43 70 272 303 328 325 320 337 330 12 42 74 44 88 72 342 32 58 71 205 150 168 121 71 105 90 284 74 179 111 74 79 93 49 68 6 87 72 82 63 316 104 79 24 348 151 108 22 335 4 29 56 39 66 78 76 81 73 63 84
356 354 345 330 318 319 327 334 337 341 344 346 343 342 357 8 16 51 85 101 98 99 97 94 145 153 61 80 87 76 232 44 353 345 334 349 8 41 357 338 18 69 99 33 75 211 112 139 164 124 43 220 116 336 62 173 126 97 127 95 74 74 70 30 35 18 352 20 41 111 132 114 5 55 118 328 324 34 77 75 77 74 78 82 90 86 75 79
357 350 344 333 335 334 339 342 336 330 331 334 334 339 32 62 69 83 84 99 100 101 107 77 96 93 76 76 72 72 281 262 330 348 348 358 37 6 334 332 357 134 121 114 2 302 205 154 108 57 173 169 39 86 65 99 71 166 141 82 259 7 53 13 352 325 54 148 155 115 108 20 6 34 337 286 72 95 92 81 73 94 93 89 92 92 85 85
357 352 346 348 339 334 327 330 326 325 327 334 336 354 31 69 84 79 111 81 71 88 85 89 67 75 88 53 265 247 340 266 3 352 2 31 70 77 75 49 74 74 124 118 56 338 130 127 106 78 236 93 142 86 182 73 7 107 41 126 51 357 23 354 329 344 74 311 342 300 283 259 310 275 266 257 73 129 98 100 90 73 106 89 83 111 105 108
359 356 349 335 332 325 322 321 343 346 353 355 1 1 9 41 63 71 74 90 103 88 84 74 83 70 82 168 252 238 304 146 340 15 8 335 75 308 5 15 45 38 40 93 95 91 68 67 92 112 109 72 102 316 45 354 22 134 253 67 73 31 330 5 38 311 95 316 357 182 242 278 234 245 224 231 279 225 136 134 133 126 132 141 141 137 146 107
358 358 348 352 346 341 337 350 358 355 355 359 352 358 21 33 48 43 66 86 69 77 104 64 38 75 52 76 273 291 132 70 26 0 344 15 13 347 353 348 16 4 55 97 107 41 95 60 65 37 358 306 27 60 10 34 11 19 71 304 328 100 293 310 23 23 100 357 5 101 294 249 237 227 203 207 153 160 163 158 162 174 168 172 172 168 171 175
0 358 357 351 343 337 336 348 355 353 351 341 352 13 39 67 71 53 42 73 26 46 103 60 4 94 106 42 259 25 43 27 352 324 345 53 26 26 285 269 310 26 48 36 59 64 39 65 67 188 338 5 46 71 53 30 349 357 74 279 307 36 233 335 32 62 34 273 7 59 233 4 271 198 191 175 158 144 176 179 186 189 192 190 189 191 176 167
360 356 351 345 339 336 338 341 354 342 338 336 354 53 62 69 90 99 87 56 14 8 73 80 86 80 73 253 347 28 324 304 287 345 348 58 48 339 32 37 22 6 3 16 30 56 2 61 276 20 41 85 310 87 84 10 333 333 19 93 263 54 330 91 302 35 357 41 230 11 180 219 282 237 181 157 169 156 189 198 203 204 201 199 204 204 196 199
358 354 350 343 343 338 334 337 342 333 316 309 209 356 64 46 91 74 356 12 341 71 69 97 112 48 331 7 34 306 325 299 353 303 258 308 57 24 53 45 327 340 26 22 7 47 336 47 22 135 14 19 27 25 115 209 196 293 340 8 331 334 223 263 345 329 2 19 83 348 64 281 276 229 226 197 179 173 201 200 208 206 207 216 213 213 216 213
348 347 348 349 344 338 331 334 345 329 325 98 90 94 31 41 14 55 42 344 36 352 26 331 19 89 187 306 282 282 288 245 267 17 341 358 345 91 55 84 65 33 327 60 333 48 346 63 37 42 13 350 5 35 90 191 147 230 182 197 179 25 295 309 298 332 39 1 30 12 254 279 239 231 225 221 187 190 214 213 231 232 229 226 220 219 218 220
353 351 351 347 342 333 321 333 338 344 352 81 25 32 17 12 9 347 350 35 69 96 152 252 128 210 345 4 337 294 237 16 48 349 359 356 343 7 39 55 16 63 60 54 314 29 338 72 64 32 272 284 279 238 225 226 141 99 104 97 195 231 288 291 301 315 2 67 132 291 291 266 249 219 216 204 185 209 210 217 220 221 218 217 219 219 220 223
355 352 347 340 337 331 328 337 347 346 74 100 92 62 253 161 55 33 318 49 207 109 59 112 140 131 130 274 312 354 24 330 89 4 7 300 109 57 341 25 13 49 10 252 139 306 62 64 358 280 251 258 282 278 135 84 53 145 122 105 155 66 324 200 155 7 310 107 295 350 303 260 240 223 220 169 178 224 204 214 224 222 222 221 217 221 221 225
351 351 348 338 336 333 333 349 355 97 64 86 74 147 104 195 185 180 120 55 15 39 44 43 348 32 334 192 268 165 143 13 359 3 342 21 342 85 324 71 61 69 325 357 14 24 48 72 297 286 268 252 293 68 109 150 97 47 105 144 52 304 256 288 249 4 348 143 260 212 279 269 240 212 210 195 212 230 213 209 216 211 217 219 220 224 225 212
351 347 343 336 333 338 349 2 52 62 36 44 84 88 122 203 36 224 97 120 76 313 47 22 24 6 352 313 338 81 53 40 288 340 346 6 8 55 31 49 48 51 27 26 122 82 53 335 323 298 135 124 7 20 48 54 62 71 46 49 300 267 20 315 285 13 2 66 280 190 247 277 291 216 227 218 206 232 223 221 234 216 220 217 216 210 208 213
348 347 341 334 333 340 19 28 21 42 28 120 98 109 199 104 116 100 60 103 138 325 29 233 121 127 30 16 341 52 72 332 61 335 344 40 58 250 70 76 67 49 46 49 87 93 136 286 22 76 79 167 65 9 53 48 24 344 104 129 268 329 307 172 268 341 131 16 99 113 258 287 181 230 247 227 212 237 235 232 240 236 229 231 243 239 220 217
349 346 337 332 333 334 317 56 39 36 180 45 44 247 103 102 118 127 96 25 19 22 170 68 123 53 313 240 4 125 265 92 83 239 287 53 338 36 100 158 89 26 145 43 87 78 39 308 147 36 27 42 118 40 22 48 7 330 241 213 245 234 266 279 303 3 1 338 31 14 19 305 302 251 250 243 134 233 226 233 236 232 228 220 227 227 221 225
349 340 337 337 334 333 237 58 349 158 75 79 201 91 101 130 130 95 92 74 28 272 1 349 149 341 171 339 10 336 55 55 261 324 294 351 200 125 111 26 62 164 213 110 99 119 136 349 68 136 103 68 59 95 278 93 117 74 313 155 269 271 248 267 276 83 360 359 321 8 95 271 324 284 256 274 246 252 234 231 241 232 226 217 225 221 217 215
347 337 345 346 340 339 60 224 179 138 45 315 325 345 346 53 170 106 14 351 34 289 32 257 63 341 76 306 308 321 53 296 316 343 14 351 35 339 96 316 32 41 107 166 36 10 18 350 35 46 50 50 43 36 310 96 82 333 155 79 326 304 204 211 122 122 186 273 316 53 78 218 308 286 255 271 267 268 260 245 243 234 228 223 222 220 220 214
343 344 351 8 5 41 160 120 90 58 157 281 355 10 18 138 80 41 79 56 327 355 8 316 17 328 72 312 19 85 155 294 39 296 62 299 177 357 83 74 115 189 312 73 125 251 94 344 25 16 46 48 49 224 308 130 156 264 250 261 20 159 147 108 96 102 61 25 299 343 340 22 258 259 85 16 308 270 255 247 242 237 229 226 224 222 220 216
348 351 357 22 54 63 71 108 108 118 296 342 334 9 66 93 85 99 110 108 253 59 186 88 244 30 339 0 36 23 338 7 92 295 322 326 38 170 60 41 124 123 92 141 159 235 332 125 293 119 88 358 255 273 208 160 9 286 148 77 89 81 66 79 101 80 340 58 286 276 173 184 280 272 321 358 248 271 257 252 244 232 227 223 223 226 220 218
354 355 356 358 65 14 1 37 47 329 347 323 311 341 56 60 33 38 22 292 41 311 36 282 56 297 18 47 339 2 36 342 133 308 22 78 319 26 58 135 112 52 43 20 71 184 233 311 165 70 43 240 291 264 169 188 252 163 88 138 345 39 33 30 61 87 54 14 255 254 275 126 297 266 228 154 220 203 234 283 267 246 232 228 225 221 219 212
5 7 4 43 80 187 63 38 321 36 309 304 274 46 71 39 111 104 71 232 22 286 17 29 345 18 24 46 353 344 52 351 349 24 351 8 0 37 12 77 32 56 45 10 34 339 5 359 87 288 64 318 102 313 111 203 243 123 21 48 37 285 14 36 345 31 92 273 255 289 346 148 205 291 266 233 251 214 190 220 255 265 237 229 220 221 218 216
12 22 29 50 113 66 79 167 315 330 322 313 61 59 74 220 9 71 216 334 20 305 80 292 11 62 19 327 67 341 349 335 11 26 36 21 36 37 356 98 347 59 349 338 330 344 33 83 285 328 207 37 351 33 296 6 5 36 65 27 80 274 29 313 16 343 194 201 177 318 3 5 231 235 256 259 239 241 221 220 224 238 260 240 236 229 224 221
5 25 50 43 36 48 42 252 307 280 338 43 70 52 59 91 201 271 304 323 269 32 275 149 274 10 306 49 352 331 279 46 319 51 145 4 101 38 291 80 237 153 65 306 321 19 273 290 359 315 5 354 88 78 325 12 345 15 46 70 61 31 35 277 276 227 299 287 283 327 315 251 271 286 240 242 244 225 221 225 241 242 247 256 252 247 238 229
14 45 62 33 76 82 54 21 329 298 56 38 73 43 50 57 245 187 269 264 213 356 45 352 347 256 45 89 318 355 29 218 38 338 56 18 55 34 333 356 54 18 82 86 65 176 28 347 296 16 43 4 61 124 170 180 27 1 152 101 164 143 159 279 223 275 250 251 281 294 52 235 69 246 276 233 283 339 270 273 271 266 266 288 304 287 261 246
80 64 98 42 51 57 31 8 9 53 77 65 52 84 119 244 207 180 248 282 290 310 198 307 51 60 342 29 320 293 177 304 45 24 20 57 5 85 347 321 341 110 131 82 274 71 202 222 256 264 240 356 83 282 103 93 61 49 151 94 61 269 138 210 214 178 314 345 328 247 206 206 207 259 283 244 289 291 261 276 286 273 262 278 287 265 252 240
306 325 68 23 28 340 16 357 344 58 87 60 74 43 108 185 128 163 124 165 48 208 297 24 74 68 290 312 321 63 308 71 333 79 356 64 206 113 226 207 3 350 115 118 197 177 29 309 285 319 2 69 131 173 353 92 7 271 62 92 215 169 102 86 67 96 107 55 252 190 306 276 295 295 313 354 304 269 286 269 263 263 271 279 263 259 250 247
19 344 39 335 8 341 339 2 22 77 60 85 90 102 198 279 210 160 234 162 244 132 62 142 306 99 325 307 267 341 296 24 279 76 332 158 5 207 261 278 185 304 189 133 313 189 152 258 290 118 226 350 267 98 79 18 134 76 39 223 130 117 110 123 272 338 62 136 267 53 246 303 34 292 327 344 313 277 242 243 241 257 245 247 248 247 246 243
71 65 147 44 315 314 322 321 70 51 74 78 70 145 241 95 194 171 181 97 309 52 95 98 262 78 264 121 322 323 313 94 310 51 255 333 152 149 123 185 353 123 260 259 122 272 111 354 307 356 15 242 9 73 348 6 35 220 186 171 74 305 317 334 91 337 331 289 281 300 276 258 185 255 325 297 271 268 255 216 216 239 233 236 247 252 254 253
63 82 21 323 339 357 304 26 66 65 68 63 188 104 237 235 214 155 215 167 111 135 82 233 136 293 133 135 247 296 323 59 324 91 68 263 77 183 169 169 209 182 333 155 64 162 39 144 297 301 147 318 325 81 246 265 27 53 71 36 6 104 165 118 208 178 122 273 15 288 21 277 184 222 206 243 236 241 250 222 220 224 223 225 234 246 252 254
34 32 325 288 335 9 320 72 56 46 61 122 196 169 185 136 206 179 44 184 234 102 230 133 220 114 235 213 139 326 327 106 148 288 118 274 272 237 187 343 158 227 87 351 126 149 143 106 228 279 299 341 278 194 210 159 163 315 44 325 20 39 221 110 13 149 197 203 196 265 317 272 243 209 193 251 238 231 212 217 229 230 232 227 228 231 243 246
46 98 261 322 334 311 39 45 47 44 94 184 100 153 71 197 182 233 168 217 207 299 166 173 158 147 199 109 290 182 346 39 39 215 198 282 166 331 218 159 181 126 109 41 92 230 81 147 209 309 355 254 241 244 190 174 169 168 164 203 170 126 156 30 272 24 81 114 237 134 266 270 280 152 220 250 264 245 250 247 243 240 238 233 231 234 230 243
95 30 285 338 332 50 73 55 23 91 98 110 132 161 142 116 87 166 131 216 222 163 30 111 69 123 133 139 176 177 143 296 205 28 251 181 248 154 281 93 139 160 129 180 192 232 150 167 75 279 218 229 239 349 296 284 108 151 149 217 151 125 105 105 191 266 40 251 97 158 63 274 241 207 216 238 267 252 244 222 262 265 261 254 251 248 246 235
54 171 251 347 349 75 73 64 324 43 64 197 262 25 6 46 123 198 137 223 184 134 65 63 189 114 246 152 192 161 176 229 165 218 198 225 262 217 171 144 145 98 96 328 36 270 108 81 4 270 298 311 324 331 49 79 93 52 4 74 114 172 183 175 187 175 156 113 176 0 213 263 262 194 226 227 247 259 258 235 242 266 268 264 261 262 255 255
132 137 26 356 48 91 80 141 130 81 129 355 77 77 275 180 144 71 236 268 151 135 172 161 340 235 156 122 122 181 196 47 235 159 297 171 268 110 151 161 190 160 165 215 138 223 71 288 124 321 347 335 343 345 2 341 29 211 195 211 146 76 66 134 100 93 239 209 178 136 251 268 263 270 293 236 280 282 269 249 207 250 262 261 261 262 260 258
111 346 39 307 7 55 133 187 132 152 186 141 132 132 331 31 186 194 165 190 134 168 114 261 198 151 70 135 97 74 276 185 276 280 113 199 248 122 187 166 225 190 181 245 112 106 120 208 117 301 297 314 312 315 291 287 233 236 167 107 243 146 129 127 230 114 208 265 148 197 252 254 281 271 243 286 299 294 268 251 230 221 249 259 262 262 262 260
127 124 300 355 15 40 65 34 97 133 134 144 87 223 131 82 357 300 154 74 175 102 40 128 15 89 92 82 91 199 219 324 166 250 129 267 278 326 130 189 199 245 207 135 87 42 173 341 191 169 168 217 229 235 250 105 45 249 243 176 212 198 202 122 102 125 220 184 190 234 235 286 299 285 285 283 280 271 280 275 256 256 250 245 248 255 256 256
131 88 103 86 339 50 62 18 71 66 161 174 115 180 196 185 242 343 174 331 224 148 52 77 177 128 248 111 220 216 240 219 25 78 232 199 253 244 257 173 125 284 159 109 257 86 69 282 238 213 228 235 242 253 235 148 262 267 264 249 193 181 180 173 179 229 118 98 269 247 248 260 266 276 281 285 285 276 265 269 271 263 258 254 256 257 260 259
204 228 113 158 124 185 71 11 97 87 62 73 131 44 169 132 111 160 348 132 115 273 147 296 131 230 171 178 149 153 204 223 144 236 331 220 337 324 43 172 181 197 165 70 9 137 149 208 279 147 252 250 262 266 276 278 241 258 252 252 216 198 168 198 227 224 134 214 243 270 126 228 271 273 276 278 279 283 290 285 282 277 275 271 266 265 265 263
105 141 151 304 131 286 140 154 109 119 80 85 104 101 170 168 199 215 165 95 28 280 174 234 256 218 200 183 141 210 174 15 291 225 195 203 205 111 275 324 159 116 146 81 117 177 116 248 230 155 272 274 270 259 259 248 273 274 262 249 237 202 211 214 236 227 205 233 247 266 278 270 267 275 277 279 285 288 285 286 287 280 270 267 266 264 261 261
209 134 164 21 84 112 305 56 100 86 84 44 107 237 164 180 192 229 322 147 182 264 47 189 249 176 174 172 164 169 215 195 199 261 224 141 278 168 230 193 145 357 163 189 164 276 148 279 112 178 328 274 253 294 311 221 220 270 267 248 235 223 226 227 236 252 230 257 259 260 266 273 271 263 274 284 287 282 282 276 270 269 268 264 261 260 260 259
132 158 156 124 61 315 51 23 97 101 105 287 125 223 128 203 218 183 189 186 165 178 183 207 183 110 65 165 221 248 239 201 198 219 184 164 228 214 158 281 134 145 151 156 148 14 112 263 58 61 335 291 19 20 305 281 252 253 274 275 256 214 222 231 214 222 186 225 242 260 272 263 264 281 249 250 265 264 262 269 274 266 259 259 258 259 258 257
78 61 75 105 94 275 144 50 26 89 271 225 160 195 182 222 200 156 167 183 159 174 183 170 175 119 262 163 233 231 238 198 230 238 199 219 245 180 209 168 160 154 179 178 354 152 184 150 188 37 309 267 289 319 296 300 303 291 266 241 231 196 200 243 259 214 207 200 227 235 239 244 271 302 294 280 244 256 265 263 267 271 261 248 251 257 258 259